P/2012 WA34 ( Lemmon-PanSTARRS ) 2023

Japanese version
Home page
Updated on May 29, 2022

---------------------------------------------------------------------

* Profile

* Orbital Elements

Epoch 2023 June 25.0 TT = JDT 2460120.5
T 2023 July 8.88454 TT                                  MPC
q   3.0712282            (2000.0)            P               Q
n   0.09741643     Peri.  356.64860     -0.00384531     -0.99438420
a   4.6778675      Node    93.55289     +0.91992175     -0.04498507
e   0.3434555      Incl.    6.08272     +0.39208314     +0.09579353
P  10.1
From 30 observations 2011 Sept. 26-2013 Jan. 18, mean residual 0".4.

* Magnitudes Graph

        m1 = 13.5 + 5 log d + 10.0 log r

---------------------------------------------------------------------

The orbital elements are published on M.P.E.C. 2013-C52.
The magnitudes graphs are made with Comet for Windows.

---------------------------------------------------------------------

Copyright(C) Seiichi Yoshida (comet@aerith.net). All rights reserved.